Change the Weather History Date:

Monday, December 17, 2012

  Actual Average Record
Temperature  
Mean Temperature 30 °F -  
Max Temperature 39 °F 25 °F 44 °F (1982)
Min Temperature 21 °F 12 °F -11 °F (2008)
Degree Days  
Heating Degree Days 35    
Moisture  
Dew Point 23 °F    
Average Humidity 81    
Maximum Humidity 100    
Minimum Humidity 48    
Precipitation  
Precipitation 0.00 in - - ()
Sea Level Pressure  
Sea Level Pressure 29.52 in    
Wind  
Wind Speed 6 mph (WNW)    
Max Wind Speed 21 mph    
Max Gust Speed 23 mph    
Visibility 8 miles    
Events      
Averages and records for this station are not official NWS values.
T = Trace of Precipitation, MM = Missing Value Source: NWS Daily Summary

Daily Weather History Graph

Daily Weather History Graph

Search for Another Location

Airport or City:

Trip Planner

Search our weather history database for the weather conditions in past years. The results will help you decide how hot, cold, wet, or windy it might be!

Date:

Astronomy

Dec. 17, 2012 Rise Set
Actual Time 8:09 AM MST 4:54 PM MST
Civil Twilight 7:35 AM MST 5:28 PM MST
Nautical Twilight 6:57 AM MST 6:06 PM MST
Astronomical Twilight 6:22 AM MST 6:41 PM MST
Moon 11:08 AM MST (12/17) 10:33 PM MST (12/17)
Length of Visible Light 9h 53m
Length of Day
8h 45m
Waxing Crescent, 25% of the Moon is Illuminated
Dec 17
Waxing Crescent
Dec 19
First Quarter
Dec 28
Full
Jan 4
Last Quarter
Jan 11
New

Hourly Weather History & Observations

Time (MST) Temp. Windchill Dew Point Humidity Pressure Visibility Wind Dir Wind Speed Gust Speed Precip Events Conditions
12:15 AM 30.2 °F 24.3 °F 19.4 °F 64% 29.56 in 10.0 mi South 5.8 mph - N/A   Overcast
12:35 AM 30.2 °F 21.9 °F 17.6 °F 60% 29.54 in 10.0 mi SE 9.2 mph 16.1 mph N/A   Overcast
1:15 AM 30.2 °F 25.4 °F 19.4 °F 64% 29.50 in 10.0 mi SSW 4.6 mph - N/A   Overcast
1:35 AM 30.2 °F 21.3 °F 21.2 °F 69% 29.49 in 10.0 mi SSW 10.4 mph - N/A   Overcast
1:55 AM 30.2 °F 21.9 °F 21.2 °F 69% 29.48 in 10.0 mi SSW 9.2 mph - N/A   Overcast
2:15 AM 30.2 °F 26.7 °F 21.2 °F 69% 29.48 in 10.0 mi SSE 3.5 mph - N/A   Overcast
2:35 AM 28.4 °F 24.6 °F 21.2 °F 74% 29.47 in 10.0 mi NE 3.5 mph - N/A   Overcast
2:55 AM 28.4 °F - 19.4 °F 69% 29.46 in 10.0 mi Calm Calm - N/A   Overcast
3:15 AM 28.4 °F - 21.2 °F 74% 29.45 in 10.0 mi Calm Calm - N/A   Overcast
3:35 AM 28.4 °F - 21.2 °F 74% 29.45 in 10.0 mi Calm Calm - N/A   Overcast
3:55 AM 28.4 °F - 21.2 °F 74% 29.44 in 5.0 mi Calm Calm - N/A   Overcast
4:15 AM 26.6 °F - 21.2 °F 80% 29.43 in 3.0 mi Calm Calm - N/A   Overcast
4:35 AM 26.6 °F - 24.8 °F 93% 29.43 in 1.2 mi Calm Calm - N/A   Overcast
4:55 AM 26.6 °F 22.6 °F 24.8 °F 93% 29.42 in 1.2 mi NNW 3.5 mph - N/A   Overcast
5:15 AM 26.6 °F 21.2 °F 24.8 °F 93% 29.42 in 1.5 mi NNW 4.6 mph - N/A   Overcast
5:35 AM 26.6 °F 19.1 °F 24.8 °F 93% 29.40 in 3.0 mi North 6.9 mph - N/A   Overcast
5:55 AM 26.6 °F 19.1 °F 24.8 °F 93% 29.40 in 8.0 mi North 6.9 mph - N/A   Overcast
6:15 AM 26.6 °F 20.0 °F 24.8 °F 93% 29.40 in 10.0 mi North 5.8 mph - N/A   Overcast
6:35 AM 26.6 °F 20.0 °F 24.8 °F 93% 29.41 in 5.0 mi South 5.8 mph - N/A   Overcast
6:55 AM 26.6 °F - 24.8 °F 93% 29.41 in 1.0 mi Calm Calm - N/A   Overcast
7:15 AM 26.6 °F 22.6 °F 24.8 °F 93% 29.41 in 2.0 mi North 3.5 mph - N/A   Overcast
7:35 AM 24.8 °F 20.5 °F 24.8 °F 100% 29.41 in 10.0 mi North 3.5 mph - N/A   Overcast
7:55 AM 26.6 °F 20.0 °F 24.8 °F 93% 29.41 in 10.0 mi WNW 5.8 mph - N/A   Overcast
8:15 AM 26.6 °F 20.0 °F 24.8 °F 93% 29.43 in 8.0 mi SSE 5.8 mph - N/A   Overcast
8:35 AM 26.6 °F 22.6 °F 24.8 °F 93% 29.42 in 4.0 mi SSE 3.5 mph - N/A   Overcast
9:15 AM - - - N/A% 29.43 in - SE 4.6 mph - N/A   Unknown
9:35 AM 26.6 °F 21.2 °F 26.6 °F 100% 29.45 in 0.8 mi WSW 4.6 mph - N/A   Overcast
10:15 AM 28.4 °F - 28.4 °F 100% 29.44 in 1.0 mi Calm Calm - N/A   Overcast
10:35 AM 26.6 °F 21.2 °F 26.6 °F 100% 29.44 in 10.0 mi South 4.6 mph - N/A   Scattered Clouds
10:55 AM 26.6 °F 20.0 °F 26.6 °F 100% 29.45 in 10.0 mi NE 5.8 mph - N/A   Clear
11:15 AM 26.6 °F 20.0 °F 26.6 °F 100% 29.46 in 10.0 mi NW 5.8 mph - N/A   Partly Cloudy
11:35 AM 28.4 °F 23.3 °F 26.6 °F 93% 29.45 in 10.0 mi South 4.6 mph - N/A   Clear
11:55 AM 30.2 °F 24.3 °F 28.4 °F 93% 29.45 in 10.0 mi West 5.8 mph - N/A   Clear
12:15 PM 30.2 °F 25.4 °F 28.4 °F 93% 29.46 in 10.0 mi NW 4.6 mph - N/A   Clear
12:35 PM 37.4 °F 28.5 °F 24.8 °F 60% 29.45 in 10.0 mi SW 15.0 mph 20.7 mph N/A   Clear
12:55 PM 37.4 °F 26.9 °F 24.8 °F 60% 29.45 in 10.0 mi WSW 20.7 mph - N/A   Partly Cloudy
1:15 PM 37.4 °F 29.8 °F 24.8 °F 60% 29.47 in 10.0 mi WSW 11.5 mph - N/A   Mostly Cloudy
1:35 PM 39.2 °F 33.6 °F 24.8 °F 56% 29.48 in 10.0 mi WSW 8.1 mph 18.4 mph N/A   Mostly Cloudy
1:55 PM 35.6 °F 29.9 °F 26.6 °F 70% 29.48 in 10.0 mi NNW 6.9 mph 20.7 mph N/A   Mostly Cloudy
2:15 PM 33.8 °F - 28.4 °F 81% 29.48 in 10.0 mi Calm Calm - N/A   Scattered Clouds
2:35 PM 37.4 °F 28.9 °F 23.0 °F 56% 29.48 in 10.0 mi WSW 13.8 mph 21.9 mph N/A   Scattered Clouds
2:55 PM 37.4 °F 28.9 °F 19.4 °F 48% 29.49 in 10.0 mi WSW 13.8 mph - N/A   Partly Cloudy
5:35 PM 28.4 °F 20.4 °F 24.8 °F 86% 29.59 in 10.0 mi NW 8.1 mph - N/A   Scattered Clouds
5:55 PM 28.4 °F 16.2 °F 24.8 °F 86% 29.62 in 10.0 mi North 17.3 mph - N/A   Mostly Cloudy
6:35 PM 28.4 °F 24.6 °F 26.6 °F 93% 29.65 in 8.0 mi WNW 3.5 mph - N/A   Overcast
6:55 PM 28.4 °F 24.6 °F 24.8 °F 86% 29.65 in 2.5 mi WNW 3.5 mph - N/A   Overcast
7:15 PM 28.4 °F 24.6 °F 24.8 °F 86% 29.66 in 8.0 mi SW 3.5 mph - N/A   Overcast
7:35 PM 26.6 °F - 24.8 °F 93% 29.67 in 10.0 mi Calm Calm - N/A   Overcast
7:55 PM 26.6 °F - 24.8 °F 93% 29.67 in 10.0 mi Calm Calm - N/A   Overcast
8:15 PM 26.6 °F 22.6 °F 23.0 °F 86% 29.68 in 10.0 mi North 3.5 mph - N/A   Overcast
8:35 PM 26.6 °F 21.2 °F 24.8 °F 93% 29.68 in 10.0 mi North 4.6 mph - N/A   Overcast
8:55 PM 26.6 °F 22.6 °F 24.8 °F 93% 29.69 in 10.0 mi North 3.5 mph - N/A   Overcast
9:15 PM 26.6 °F 16.8 °F 24.8 °F 93% 29.71 in 5.0 mi NNW 10.4 mph 16.1 mph N/A   Overcast
9:35 PM 26.6 °F 16.2 °F 21.2 °F 80% 29.71 in 2.0 mi WSW 11.5 mph - N/A   Overcast
9:55 PM 26.6 °F 15.7 °F 21.2 °F 80% 29.70 in 10.0 mi SSW 12.7 mph - N/A   Overcast
10:15 PM 28.4 °F 18.5 °F 15.8 °F 59% 29.70 in 10.0 mi North 11.5 mph 23.0 mph N/A   Mostly Cloudy
10:35 PM 24.8 °F 20.5 °F 15.8 °F 69% 29.71 in 10.0 mi North 3.5 mph - N/A   Partly Cloudy
10:55 PM 24.8 °F 17.9 °F 15.8 °F 69% 29.71 in 10.0 mi WNW 5.8 mph - N/A   Partly Cloudy
11:15 PM 21.2 °F - 12.2 °F 68% 29.73 in 10.0 mi Calm Calm - N/A   Scattered Clouds
11:35 PM 24.8 °F 14.6 °F 15.8 °F 69% 29.73 in 10.0 mi WSW 10.4 mph - N/A   Overcast
11:55 PM 26.6 °F 18.2 °F 17.6 °F 69% 29.74 in 10.0 mi SSW 8.1 mph - N/A   Overcast